Flag for Norway Weather past 2 weeks in Kvernaland, Norway

Now
48 °F

Rain showers. Passing clouds.


Feels Like: 46 °F
Forecast: 38 / 47 °F
Wind: 6 mph from Southeast

Location: Stavanger / Sola

Current Time: May 7, 2015 at 2:43:57 AM

Latest Report: May 7, 2015 at 2:00 AM


Visibility: 9 mi

Pressure: 29.44 "Hg

Humidity: 83%

Dew point: 44 °F

Location of KvernalandLocation

Historic Weather in Kvernaland — Graph

°F

Kvernaland temperature yesterday

Maximum temperature yesterday: 56 °F (at 1:00 PM)
Minimum temperature yesterday: 48 °F (at 3:00 AM)
Average temperature yesterday: 51 °F

Past Weeks' High & Low Weather Summary

 TemperatureHumidityPressure
High61 °F (May 5, 5:00 PM)98% (Apr 23, 4:00 AM)30.44 "Hg (Apr 23, 4:00 AM)
Low34 °F (May 3, 4:00 AM)30% (Apr 28, 5:00 PM)29.18 "Hg (May 5, 4:00 PM)
Average46 °F77%29.73 "Hg
* Reported Apr 21 10:00 PM — May 6 10:00 PM, Kvernaland, Weather by CustomWeather, © 2015

Note: Actual official high and low records may vary slightly from our data, if they occured in-between our weather recording intervals... More about our weather records

Advertising

Kvernaland weather history for previous 24 hours

 ConditionsComfort  
Time TempWeatherWind HumidityBarometerVisibility
10:00 PM
Wed, May 6
49 °FPassing clouds.8 mph81%29.47 "Hg7 mi
9:00 PM49 °FOvercast.8 mph83%29.47 "Hg6 mi
8:00 PM50 °FOvercast.9 mph87%29.47 "Hg5 mi
7:00 PM50 °FLow clouds.9 mph89%29.47 "Hg5 mi
6:00 PM51 °FOvercast.9 mph85%29.50 "Hg6 mi
5:00 PM52 °FOvercast.9 mph83%29.50 "Hg6 mi
4:00 PM53 °FOvercast.9 mph77%29.50 "Hg6 mi
3:00 PM53 °FRain showers. Partly sunny.8 mph80%29.50 "Hg6 mi
2:00 PM54 °FPartly sunny.12 mph74%29.50 "Hg7 mi
1:00 PM56 °FScattered clouds.10 mph74%29.47 "Hg7 mi
12:00 PM54 °FScattered clouds.10 mph72%29.47 "Hg7 mi
11:00 AM54 °FPartly sunny.10 mph73%29.47 "Hg7 mi
10:00 AM51 °FPartly sunny.10 mph82%29.47 "Hg6 mi
9:00 AM50 °FOvercast.9 mph84%29.44 "Hg5 mi
8:00 AM50 °FOvercast.9 mph84%29.44 "Hg5 mi
7:00 AM50 °FOvercast.9 mph84%29.41 "Hg6 mi
6:00 AM50 °FScattered clouds.8 mph82%29.41 "Hg7 mi
4:00 AM49 °FPassing clouds.8 mph84%29.41 "Hg7 mi
3:00 AM48 °FClear.8 mph84%29.41 "Hg7 mi
2:00 AM48 °FClear.9 mph84%29.41 "Hg7 mi
Weather by CustomWeather, © 2015

See weather overviewHow to use our weather pages